Погода Поярково

Погода Поярково : погода сейчас, прогноз погоды и архив. Всё, что Вы хотите узнать о погоде Поярково!

Поиск расширенной информации на нашем сайте:

Полезная информация: Смотреть бесплатно дораму радио.

Другие новости

Новости СМИ2

Главная страница сайта

Новости сайта

02.10.2013

Напоминаем, что на нашем новом сайте вы можете получить высокодетализированные прогнозы погоды по пунктам России, СНГ и мира (включающие важные для авиации метеовеличины, такие как направление и скорость ветра, видимость, явления погоды, количество и форма облачности, нижняя и верхняя граница облачности), а также ознакомиться с разнообразными материалами по авиационной метеорологии и подборкой полезных ссылок на эту тему.

Сайт Метеоцентр.Азия посвящён разработке технологий оптимизации авиаметеорологического обслуживания, включая проектирование и перспективное создание нескольких автоматизированных авиаметеорологических систем:
- система выпуска высокодетальных прогностических карт явлений погоды для нижнего воздушного пространства по России и ближнему зарубежью;
- система верификации прогнозов TAF (выпускаемых синоптиками официальных АМСГ РФ и ближнего зарубежья) и AUTOTAF (выпускаемых сайтом Метеоцентр.Азия) - выявление ошибок, онлайн-сопоставление с фактической погодой METAR, автоматическое внесение коррективов в прогнозы при резком отклонении фактической погоды от прогноза, подсчёт оправдываемости прогнозов по элементам и в целом;
- система обработки, анализа и отображения авиаметеорологической информации для применения провайдерами метеорологической информации.

Рекомендуем: новая баня екатеринбург

Погода Поярково - сегодня

Время (UTC), дата Ветер
(°,м/с) 
Видим.   Явления Облачность Т
(°С)
Тd
(°С)
f(%) Тe
(°С)
Pmin
(гПа)
dP
(гПа)
Po
(мм)
O2
(г/м3)
Тmin Tmax R s Состояние
почвы
09 18.02.17 260 (З) 20000 м    ясно 
-19.6 -29.1 43 -20  1022.2  0.2  755  330           
12 18.02.17 тихо ()   н/о    ясно 
-26.1 -30.3 68 -26  1022.5  -0.2  755  338    -16       
15 18.02.17 040 (СВ) н/о    ясно 
-30.6 -34.3 70 -31  1022.4  -0.4  755  344           
18 18.02.17 тихо ()   н/о    ясно 
-33.4 -37.6 66 -33  1022.2  -0.4  754  348           
21 18.02.17 тихо ()   н/о    ясно 
-35.3 -39.6 65 -35  1021.7  -0.6  754  351           
00 19.02.17 090 (В) 20000 м    ясно 
-28.5 -33.2 64 -29  1021.2  754  341  -35.4      23  равномерный
сухой снег
100% 
03 19.02.17 040 (СВ) 20000 м    ясно 
-21.7 -30.1 47 -22  1020  -0.7  753  332           
06 19.02.17 050 (СВ) 20000 м    3/0 верхняя 
[Ci fib]
-18.1 -28.1 41 -18  1018.4  -1.4  752  326           
09 19.02.17 300 (СЗ) 20000 м    10/0 верхняя 
[Cs]
-20.2 -29.2 44 -20  1018.3  -0.2  752  329           
12 19.02.17 300 (СЗ) н/о    3/0 верхняя 
[Ci fib]
-24.9 -30.1 62 -25  1019.4  0.8  753  336    -15.9       
15 19.02.17 300 (СЗ) н/о    ясно 
-25.9 -30.9 63 -26  1020.3  0.8  753  337           
18 19.02.17 290 (З) н/о    ясно 
-27.1 -31.1 69 -31  1020.5  0.1  753  339           
21 19.02.17 290 (З) н/о    3/0 верхняя 
[Ci fib]
-26.5 -31.8 61 -30  1021.1  0.6  754  338           
00 20.02.17 290 (З) 20000 м    ясно 
-23.6 -31 51 -27  1022.4  1.6  755  335  -28.1      23  равномерный
сухой снег
100% 
03 20.02.17 300 (СЗ) 20000 м    ясно 
-16.8 -26.7 42 -21  1023  756  326           
06 20.02.17 300 (СЗ) 20000 м    ясно 
-12.4 -23.5 39 -17  1022.2  -0.5  755  320           
09 20.02.17 290 (З) 20000 м    ясно 
-13.1 -24.2 39 -15  1022.8  0.5  756  321           
12 20.02.17 290 (З) н/о    ясно 
-17 -24.9 50 -19  1024.3  1.3  757  327    -11.5       
15 20.02.17 290 (З) н/о    8/0 верхняя 
[Ci fib]
-17.3 -25.3 50 -21  1025  0.6  757  327           
18 20.02.17 300 (СЗ) н/о    8/0 верхняя 
[Ci fib]
-16.9 -24.7 51 -22  1025.3  0.3  757  327           
21 20.02.17 260 (З) н/о    3/0 верхняя 
[Ci fib]
-20.4 -26 61 -21  1026.7  1.2  758  332           
00 21.02.17 тихо ()   20000 м    ясно 
-17.6 -25 52 -18  1026.6  758  328  -24      23  равномерный
сухой снег
100% 
03 21.02.17 070 (В) 20000 м    ясно 
-11.8 -20.9 47 -14  1025.5  -0.7  758  321           
06 21.02.17 170 (Ю) 20000 м    1/0 верхняя 
[Ci fib]
-6.6 -19.1 36 -8  1022.8  -2.3  756  314           
09 21.02.17 120 (ЮВ) 20000 м    8/0 средняя, верхняя 
[Ac As|Ci fib]
-10.8 -18.5 53 -11  1021.7  -1.3  755  318           
Время (UTC), дата Ветер
(°,м/с) 
Видим.   Явления Облачность Т
(°С)
Тd
(°С)
f(%) Тe
(°С)
Pmin
(гПа)
dP
(гПа)
Po
(мм)
O2
(г/м3)
Тmin Tmax R s Состояние
почвы

Для получения пояснительной информации подведите курсор к названию столбца.

ПОГОДА Поярково - архив

Всё, что Вы хотите узнать о погоде Поярково - удобно и подробно!

Выберите нужную дату (начиная с 1 января 2015* года) и нажмите кнопку "Найти".
Будут отображены архивные сводки погоды по пункту Поярково, начиная с указанной даты.


Отображать данные в формате CSV (для использования в таблицах Excel)


Внимание! Наш архив погоды предназначен исключительно для личного некоммерческого использования в познавательных целях. Если Вам необходимы официальные справки о состоянии погоды (для производственных, юридических, коммерческих и т.п. целей), обращайтесь в органы Росгидромета.

*Примечание: данная дата относится к архиву по метеостанциям СССР (Россия, СНГ, Балтия).
Архив по метеостанциям Зарубежной Европы и Азии (кроме Китая) хранится 10 дней, по другим регионам земного шара (Китай, Африка, Америка, Австралия, Океания) - 1 день.

Поярково - район местоположения метеостанции


Название, широта, долгота, высота метеостанции:
Поярково 49.6°ш. 128.6°д. 115 м над ур. моря [Российская Федерация]

Дополнительная информация

В oтличие oт бoльшинства пoгoдных сайтoв мы публикуем пoдрoбную метеoинфoрмацию в детальнoм прoфессиoнальнoм фoрмате.

Характеристики температуры и влажнoсти вoздуха измеряются на высoте 2 м в тени вдали oт зданий и деревьев.
Скoрoсть ветра измеряется на высoте 10 м (на урoвне рoста челoвека скoрoсть ветра ниже в 1.5-2 раза). Если метеoстанция нахoдится в гoрoде или в лесу, тo скoрoсть ветра занижена на 2-4 м/с пo сравнению с oткрытым местoм. Скoрoсть ветра над акватoриями крупных рек и oзёр, а также на вершинах хoлмoв на 2-5 м/с выше, чем в oбычных услoвиях.
Атмoсфернoе давление в разных тoчках местнoсти мoжет значительнo oтличаться oт давления на метеoстанции, в зависимoсти oт услoвий рельефа (при пoдъёме на 10 м давление пoнижается примернo на 1 мм рт.ст.).